www.pogodaiklimat.ru

Погода и климат >> Архив погоды >> Россия >> Хабаровский край >> Урми


ПОГОДА в Урми

  • Прогноз погоды в Урми
  • Монитор погоды в Урми

АРХИВ ПОГОДЫ в Урми

Время (UTC), дата Ветер
(напр.,м/с)
 
Видим.   Явления Облачность Т
(С)
Тd
(С)
f
(%)
Тe
(С)
Тes
(С)
Комфортность P
(гПа)
Po
(гПа)
Тmin
(С)
Tmax
(С)
R
(мм)
R24
(мм)
S
(см)
21 11.07 штиль 0 20 км 10/3 600 м
[Sc Ci sp]
+14.1 +13.6 97 +14 +15 1005.5 982.3 +12.3
00 12.07 штиль 0 50 км 8/0
[Ci fib]
+24.2 +18.0 68 +28 +41 душно 1004.3 982.0
03 12.07 ЮВ 1 50 км 10/1 600 м
[Cu hum Ci fib]
+28.3 +15.7 46 +31 +46 душно 1002.5 980.4
06 12.07 ЮВ 1 50 км 9/0
[Ci fib]
+30.0 +12.3 34 +31 +42 жарко 1000.6 978.7
09 12.07 ЮВ 1 50 км 8/0
[Ci fib]
+26.3 +16.2 54 +30 +32 душно 1001.1 978.9 +30.2
12 12.07 штиль 0 50 км 1/0
[Ci fib]
+17.4 +16.4 94 +17 +17 1003.6 980.7
15 12.07 штиль 0 50 км ясно +14.4 +13.8 96 +14 +14 1004.6 981.4
18 12.07 штиль 0 50 км 6/0
[Ac trans]
+14.3 +13.6 96 +14 +14 1005.2 982.0
21 12.07 З 1 50 км 9/8 600 м
[Sc Ac trans]
+14.8 +14.3 97 +15 +15 1005.6 982.4 +13.2
00 13.07 штиль 0 50 км 10/0
[Ac trans Cc]
+24.3 +18.0 68 +29 +37 душно 1005.1 982.7
03 13.07 СВ 1 50 км слаб. ливневой дождь 9/8 600 м
[Cb cap Ac trans]
+25.2 +19.3 70 +30 +33 душно 1004.1 981.8
06 13.07 штиль 0 50 км гроза без осадков {ливн. осадки} 10/9 600 м
[Cb cap Ci fib]
+24.4 +18.4 69 +29 +30 душно 1003.5 981.2
09 13.07 штиль 0 50 км в посл. час ливневой дождь {гроза} 10/9 600 м
[Cb cap Ac und]
+21.7 +19.2 86 +27 +27 душно 1004.0 981.4 +28.4 0.0
12 13.07 штиль 0 50 км {гроза, ливн. осадки} 9/9 600 м
[Cb cap]
+19.0 +18.2 95 +21 +21 комфорт 1005.7 982.9
15 13.07 штиль 0 50 км 9/9 600 м
[Sc]
+18.1 +17.4 96 +18 +18 1006.2 983.3
18 13.07 штиль 0 20 км 10/10 600 м
[Sc]
+17.3 +16.7 96 +17 +17 1006.3 983.4
21 13.07 З 1 10 км слаб. ливневой дождь 10/10 600 м
[Cb cap]
+18.3 +17.7 96 +20 +20 1006.9 984.1 +17.3 0.7
00 14.07 З 1 50 км {ливн. осадки} 10/10 600 м
[Cb cap]
+20.0 +18.2 89 +24 +24 комфорт 1006.9 984.2
03 14.07 штиль 0 50 км слаб. ливневой дождь 9/9 600 м
[Cb cap]
+21.3 +19.8 91 +26 +29 душно 1006.5 983.8
06 14.07 Ю 1 50 км {ливн. осадки} 9/9 600 м
[Cb cap]
+26.5 +17.8 59 +31 +32 душно 1005.2 983.0
09 14.07 штиль 0 50 км 10/3 600 м
[Sc diur, vesp Ac trans Ci fib]
+24.3 +19.6 75 +30 +30 очень
душно
1005.3 983.0 +27.6 2
12 14.07 штиль 0 50 км 3/0
[Ci fib]
+18.8 +18.0 95 +20 +20 1007.6 984.7
15 14.07 штиль 0 50 км 9/9 600 м
[Sc]
+15.7 +15.1 96 +15 +15 1009.0 985.8
18 14.07 штиль 0 50 км 9/9 600 м
[Sc]
+15.0 +14.5 97 +15 +15 1009.3 986.1
21 14.07 штиль 0 20 км 10/10 600 м
[Sc]
+15.7 +15.2 97 +15 +15 1010.2 987.0 +13.8
00 15.07 С 1 50 км 9/3 600 м
[Sc Ac trans]
+22.9 +17.5 72 +28 +32 душно 1009.8 987.2
03 15.07 В 1 50 км 8/8 600 м
[Cb cap]
+27.9 +17.7 54 +32 +36 душно 1008.8 986.6
06 15.07 Ю 1 50 км 3/1 600 м
[Cu med, cong Ci fib]
+28.1 +17.1 51 +32 +43 душно 1007.9 985.7
09 15.07 Ю 1 50 км 10/3 600 м
[Cu med, cong Ci fib]
+25.5 +17.8 62 +30 +31 душно 1008.3 985.9 +28.6
12 15.07 штиль 0 50 км 3/3 600 м
[Sc]
+17.9 +17.0 94 +18 +18 1010.5 987.5
15 15.07 штиль 0 50 км ясно +14.7 +14.2 97 +14 +14 1011.3 988.0
18 15.07 штиль 0 50 км 10/0
[Ci fib]
+15.1 +14.6 97 +15 +15 1011.4 988.1
21 15.07 штиль 0 20 км 10/10 600 м
[Sc]
+16.8 +16.3 97 +17 +17 1011.5 988.4 +14.1
00 16.07 штиль 0 50 км 6/4 600 м
[Cb cap Ci fib]
+25.2 +18.7 67 +30 +38 душно 1010.4 988.0
03 16.07 штиль 0 4000 м ливневой дождь 9/9 600 м
[Cb cap]
+20.6 +19.5 93 +25 +27 комфорт 1010.4 987.7
06 16.07 штиль 0 50 км {ливн. осадки} 9/8 600 м
[Cb cap Ac trans]
+24.7 +20.7 78 +31 +33 очень
душно
1008.4 986.0
09 16.07 штиль 0 50 км 9/9 600 м
[Cb cap]
+23.4 +19.0 76 +30 +30 очень
душно
1007.9 985.4 +26.2 15
12 16.07 штиль 0 50 км в посл. час ливневой дождь 8/8 600 м
[Cb cap]
+18.9 +18.1 95 +20 +20 1009.4 986.5
15 16.07 штиль 0 500 м туман ?/? +16.6 +16.1 97 +16 +16 1009.6 986.5
18 16.07 штиль 0 500 м туман ?/? +14.5 +14.1 97 +14 +14 1009.2 985.9
21 16.07 штиль 0 500 м туман ?/? +15.6 +15.1 97 +15 +15 1008.4 985.2 +13.7 0.7
00 17.07 штиль 0 50 км {туман} 10/10 200 м
[St]
+18.3 +17.8 97 +19 +19 1007.6 984.7
03 17.07 штиль 0 50 км 10/10 600 м
[Sc]
+21.0 +18.6 86 +25 +25 комфорт 1006.1 983.5
06 17.07 штиль 0 20 км слаб. ливневой дождь 10/10 100 м
[Cb cap]
+19.3 +18.4 95 +21 +21 комфорт 1005.4 982.6
09 17.07 штиль 0 10 км слаб. морось 10/10 100 м
[St]
+18.9 +18.1 95 +20 +20 1004.1 981.4 +21.9 15
12 17.07 штиль 0 4000 м слаб. дождь 10/10 100 м
[Frnb Ns]
+18.0 +17.5 97 +18 +18 1004.7 981.9
15 17.07 штиль 0 4000 м слаб. дождь 10/10 100 м
[Frnb Ns]
+17.7 +17.2 97 +18 +18 1003.8 980.9
18 17.07 штиль 0 4000 м слаб. дождь 10/10 100 м
[Frnb Ns]
+17.4 +16.9 97 +17 +17 1003.0 980.1
21 17.07 штиль 0 10 км {дождь} 10/10 100 м
[St]
+17.9 +17.4 97 +18 +18 1003.0 980.1 +17.1 8
00 18.07 штиль 0 50 км {дождь} 8/8 600 м
[Cb cap]
+22.3 +18.1 77 +27 +30 душно 1002.0 979.5
03 18.07 В 1 50 км 9/8 600 м
[Cb cap Ci fib]
+26.0 +17.8 61 +30 +34 душно 1000.7 978.5
06 18.07 В 1 50 км 10/1 600 м
[Cu hum Ci fib]
+27.1 +20.3 66 +33 +43 очень
душно
999.5 977.5
09 18.07 штиль 0
{10}
50 км гроза, ливневой дождь 10/10 600 м
[Cb cap]
+17.8 +17.2 96 +18 +18 1002.0 979.2 +27.8 29
12 18.07 штиль 0 50 км {гроза, ливн. осадки} 9/9 600 м
[Cb cap]
+17.2 +16.7 97 +17 +17 1002.4 979.5
15 18.07 штиль 0 20 км 9/0
[Ci fib]
+15.4 +15.0 97 +15 +15 1003.3 980.2
18 18.07 штиль 0 500 м туман ясно +14.1 +13.7 97 +14 +14 1003.4 980.2

 

Местоположение метеостанции Урми (Хабаровский край, Россия): широта 49.40 долгота 133.20 высота над уровнем моря 201 м.

В архиве по умолчанию представлена погода в Урми за последнюю неделю. Архивные данные за месяц целиком и за предыдущие месяцы, начиная с января 2011 года, Вы можете получить, выбрав интересующий диапазон дат из раскрывающегося списка и нажав кнопку "Ввод!".


*Определитесь, кто Вы:
робот инопланетянин человек

Внимание! Время в таблицах - всемирное. Для получения местного времени необходимо прибавить поправку, которая равна 10 ч.

Смотрите также архив погоды в соседних городах и на ближайших метеорологических станциях:

Погода в Верховье Урми (Хабаровский край, Россия) (75 км)
Погода в Биробиджане (Еврейская автономная область, Россия) (78 км)
Погода в Смидовиче (Еврейская автономная область, Россия) (99 км)
Погода в Сутуре (Хабаровский край, Россия) (109 км)
Погода в Куре (Хабаровский край, Россия) (117 км)
Погода в Хабаровск Центре (Еврейская автономная область, Россия) (121 км)
Погода в Литовко (Хабаровский край, Россия) (139 км)
Погода на Хабаровск Мосту (Хабаровский край, Россия) (164 км)
Погода в Облучье (Еврейская автономная область, Россия) (166 км)
Погода в Хабаровске АМС (Хабаровский край, Россия) (167 км)

Пояснения к столбцам:

Ветер - указаны скорость ветра в м/с - средняя за 10 мин, порывы в срок и между сроками (в фигурных скобках) и направление, откуда дует ветер: С - северный, СВ - северо-восточный, В - восточный, ЮВ - юго-восточный, Ю - южный, ЮЗ - юго-западный, З - западный, СЗ - северо-западный.
Видимость - горизонтальная дальность видимости в метрах или километрах. При видимости от 1 до 10 км при отсутствии осадков обычно наблюдается дымка, при ухудшении видимости до 1 км и менее - туман. В сухую погоду видимость может ухудшаться дымом, пылью или мглою.
Явления - указаны атмосферные явления, наблюдавшиеся в срок или в последний час перед сроком; фигурными скобками обозначены явления, наблюдавшиеся между сроками (за 1-3 часа до срока); квадратными скобками обозначены град или гололедные отложения с указанием их диаметра в мм.
Облачность - указаны через наклонную черту общая и нижняя облачность в баллах и высота нижней границы облаков в метрах; квадратными скобками обозначены формы облаков: Ci - перистые, Cs - перисто-слоистые, Cc - перисто-кучевые, Ac - высококучевые, As - высокослоистые, Sc - слоисто-кучевые, Ns - слоисто-дождевые, Cu - кучевые, Cb - кучево-дождевые. Подробнее классификацию облаков см. в Атласе облаков (PDF).
T - Температура воздуха - температура, измеренная на высоте 2 м над землей.
Td - Температура точки росы - температура, при понижении до которой содержащийся в воздухе водяной пар достигнет насыщения.
f - Относительная влажность воздуха - влажноcть воздуха, измеренная на высоте 2 м над землей.
Te - Эффективная температура - температура, которую ощущает одетый по сезону человек в тени. Характеристика душности погоды. При расчете учитывается влияние влажности воздуха и скорости ветра на теплоощущения человека.
Tes - Эффективная температура на солнце - температура, которую ощущает человек, с поправкой на солнечный нагрев. Характеристика знойности погоды. Зависит от высоты солнца над горизонтом, облачности и скорости ветра. Ночью, в пасмурную погоду, а также при ветре 12 м/с и более поправка равна нулю.
P - Атмосферное давление - приведенное к уровню моря атмосферное давление.
Po - Атмосферное давление - измеренное на уровне метеостанции атмосферное давление.
Tmin - Минимальная температура - минимум температуры воздуха на высоте 2 м над землей.
Tmax - Максимальная температура - максимум температуры воздуха на высоте 2 м над землей.
R - Количество осадков - Количество выпавших осадков за период времени, мм. При наведении курсора мыши на число - период времени, за который выпало указанное количество осадков.
R24 - Количество осадков - Количество выпавших осадков за 24 часа, мм.
S - Снежный покров - Высота снежного покрова, см. При наведении курсора мыши на число - состояние снежного покрова и степень покрытия местности в баллах.